TimeEST,TemperatureF,Dew PointF,Humidity,Sea Level PressureIn,VisibilityMPH,Wind Direction,Wind SpeedMPH,Gust SpeedMPH,PrecipitationIn,Events,Conditions,WindDirDegrees,DateUTC
12:55 AM,24.6,21.6,88,30.33,10.0,North,10.4,-,N/A,,Clear,360,2013-01-15 05:55:00
1:55 AM,24.4,21.4,88,30.32,10.0,North,8.1,-,N/A,,Clear,360,2013-01-15 06:55:00
2:55 AM,24.3,21.0,87,30.31,10.0,North,9.2,-,N/A,,Clear,360,2013-01-15 07:55:00
3:55 AM,23.9,20.7,87,30.32,10.0,NNE,8.1,-,N/A,,Clear,20,2013-01-15 08:55:00
4:32 AM,23.0,21.2,93,30.32,10.0,NNE,6.9,-,N/A,,Mostly Cloudy,20,2013-01-15 09:32:00
4:55 AM,23.4,20.3,88,30.32,10.0,North,5.8,-,N/A,,Overcast,10,2013-01-15 09:55:00
4:56 AM,23.0,21.2,93,30.32,10.0,North,6.9,-,N/A,,Overcast,10,2013-01-15 09:56:00
5:55 AM,23.5,20.8,89,30.31,10.0,NNE,6.9,-,N/A,,Overcast,30,2013-01-15 10:55:00
6:55 AM,23.5,20.5,88,30.31,10.0,NE,8.1,-,N/A,,Overcast,40,2013-01-15 11:55:00
7:55 AM,23.5,20.5,88,30.33,10.0,NNE,8.1,-,N/A,,Mostly Cloudy,30,2013-01-15 12:55:00
8:55 AM,24.1,20.3,85,30.32,7.0,NE,12.7,19.6,N/A,,Mostly Cloudy,50,2013-01-15 13:55:00
9:55 AM,25.5,21.0,83,30.34,10.0,NE,10.4,-,N/A,,Overcast,50,2013-01-15 14:55:00
10:55 AM,26.8,21.7,81,30.32,10.0,ENE,9.2,-,N/A,,Scattered Clouds,60,2013-01-15 15:55:00
11:55 AM,28.4,22.8,80,30.29,10.0,NE,8.1,-,N/A,,Scattered Clouds,40,2013-01-15 16:55:00
12:55 PM,30.0,23.7,77,30.22,10.0,NE,9.2,-,N/A,,Overcast,40,2013-01-15 17:55:00
1:31 PM,32.0,24.8,75,30.16,10.0,NNE,9.2,-,N/A,,Overcast,30,2013-01-15 18:31:00
1:55 PM,31.3,24.6,76,30.20,10.0,NE,10.4,-,N/A,,Overcast,40,2013-01-15 18:55:00
2:55 PM,31.3,24.8,77,30.24,5.0,NNW,8.1,-,N/A,,Haze,330,2013-01-15 19:55:00
3:55 PM,30.9,24.4,77,30.19,5.0,North,10.4,-,N/A,,Haze,10,2013-01-15 20:55:00
4:55 PM,30.7,24.1,76,30.19,4.0,NNE,12.7,-,N/A,,Haze,30,2013-01-15 21:55:00
5:55 PM,30.7,23.9,76,30.20,5.0,North,10.4,-,N/A,,Haze,360,2013-01-15 22:55:00
6:44 PM,32.0,23.0,69,30.12,5.0,NNE,9.2,-,N/A,Snow,Light Snow Grains,30,2013-01-15 23:44:00
6:55 PM,30.9,24.1,76,30.17,7.0,NE,6.9,-,0.00,Snow,Light Snow Grains,40,2013-01-15 23:55:00
7:05 PM,32.0,24.8,75,30.12,7.0,NE,8.1,-,N/A,,Overcast,40,2013-01-16 00:05:00
7:20 PM,32.0,24.8,75,30.13,7.0,NE,4.6,-,N/A,Snow,Light Snow Grains,40,2013-01-16 00:20:00
7:33 PM,32.0,24.8,75,30.12,6.0,Variable,4.6,-,N/A,Rain,Light Freezing Rain,0,2013-01-16 00:33:00
7:55 PM,30.9,25.7,81,30.16,6.0,ENE,6.9,-,0.00,Rain,Light Freezing Rain,60,2013-01-16 00:55:00
8:55 PM,30.7,27.3,87,30.13,5.0,ENE,5.8,-,0.01,Rain-Snow,Light Freezing Rain,70,2013-01-16 01:55:00
9:14 PM,32.0,28.4,87,30.08,4.0,NE,5.8,-,N/A,Rain,Light Freezing Rain,50,2013-01-16 02:14:00
9:43 PM,32.0,28.4,87,30.06,5.0,ENE,5.8,-,N/A,Rain,Light Freezing Rain,60,2013-01-16 02:43:00
9:55 PM,30.6,28.2,91,30.09,4.0,NE,4.6,-,0.03,Rain,Light Freezing Rain,40,2013-01-16 02:55:00
10:27 PM,32.0,28.4,87,30.06,4.0,North,4.6,-,N/A,,Light Freezing Drizzle,360,2013-01-16 03:27:00
10:42 PM,30.2,28.4,93,30.10,6.0,North,4.6,-,N/A,Rain,Light Freezing Rain,360,2013-01-16 03:42:00
10:55 PM,30.9,29.3,94,30.12,6.0,NNW,5.8,-,0.02,Rain,Light Freezing Rain,340,2013-01-16 03:55:00
11:27 PM,30.2,28.4,93,30.10,6.0,North,4.6,-,N/A,Rain,Light Freezing Rain,360,2013-01-16 04:27:00
11:34 PM,30.2,30.2,100,30.09,7.0,NNE,5.8,-,N/A,Rain,Light Freezing Rain,20,2013-01-16 04:34:00
11:47 PM,30.2,28.4,93,30.07,7.0,North,5.8,-,N/A,,Overcast,10,2013-01-16 04:47:00
11:51 PM,30.2,28.4,93,30.07,7.0,NNE,5.8,-,N/A,,Overcast,20,2013-01-16 04:51:00
11:55 PM,30.7,29.5,95,30.08,7.0,Variable,3.5,-,0.02,,Overcast,0,2013-01-16 04:55:00
11:58 PM,30.2,30.2,100,30.08,7.0,NNE,5.8,-,N/A,,Overcast,20,2013-01-16 04:58:00